Time,TemperatureF,DewpointF,PressureIn,WindDirection,WindDirectionDegrees,WindSpeedMPH,WindSpeedGustMPH,Humidity,HourlyPrecipIn,Conditions,Clouds,dailyrainin,SoftwareType,DateUTC
2013-05-28 00:10:00,74.8,74.2,29.76,SE,135,5.8,-999.0,98,-99.99,,,0.00,Acu-Link.com,2013-05-28 05:10:00,
2013-05-28 00:25:00,74.3,73.7,29.77,ENE,67,6.3,-999.0,98,-99.99,,,0.00,Acu-Link.com,2013-05-28 05:25:00,
2013-05-28 00:40:00,73.9,73.3,29.76,ESE,112,4.2,-999.0,98,-99.99,,,0.00,Acu-Link.com,2013-05-28 05:40:00,
2013-05-28 00:55:00,73.6,73.0,29.76,West,270,7.8,-999.0,98,-99.99,,,0.00,Acu-Link.com,2013-05-28 05:55:00,
2013-05-28 01:10:00,73.0,72.4,29.76,West,270,5.8,-999.0,98,-99.99,,,0.00,Acu-Link.com,2013-05-28 06:10:00,
2013-05-28 01:25:00,73.0,72.4,29.75,WSW,247,5.8,-999.0,98,-99.99,,,0.00,Acu-Link.com,2013-05-28 06:25:00,
2013-05-28 01:40:00,72.9,72.3,29.74,South,180,3.7,-999.0,98,-99.99,,,0.00,Acu-Link.com,2013-05-28 06:40:00,
2013-05-28 01:55:00,72.7,72.1,29.74,NNW,337,3.2,-999.0,98,-99.99,,,0.00,Acu-Link.com,2013-05-28 06:55:00,
2013-05-28 02:10:00,72.5,71.9,29.73,SW,225,2.7,-999.0,98,-99.99,,,0.00,Acu-Link.com,2013-05-28 07:10:00,
2013-05-28 02:26:00,72.3,71.7,29.73,SSE,157,1.7,-999.0,98,-99.99,,,0.00,Acu-Link.com,2013-05-28 07:26:00,
2013-05-28 02:41:00,72.0,71.4,29.73,ESE,112,2.7,-999.0,98,-99.99,,,0.00,Acu-Link.com,2013-05-28 07:41:00,
2013-05-28 02:56:00,72.0,71.4,29.73,East,90,1.1,-999.0,98,-99.99,,,0.00,Acu-Link.com,2013-05-28 07:56:00,
2013-05-28 03:12:00,72.0,71.4,29.72,ESE,112,3.7,-999.0,98,-99.99,,,0.00,Acu-Link.com,2013-05-28 08:12:00,
2013-05-28 03:28:00,72.0,71.4,29.72,SE,135,5.3,-999.0,98,-99.99,,,0.00,Acu-Link.com,2013-05-28 08:28:00,
2013-05-28 03:43:00,72.0,71.4,29.72,South,180,4.7,-999.0,98,-99.99,,,0.00,Acu-Link.com,2013-05-28 08:43:00,
2013-05-28 03:58:00,72.1,71.5,29.72,ESE,112,7.8,-999.0,98,-99.99,,,0.00,Acu-Link.com,2013-05-28 08:58:00,
2013-05-28 04:13:00,72.1,71.5,29.71,SE,135,3.2,-999.0,98,-99.99,,,0.00,Acu-Link.com,2013-05-28 09:13:00,
2013-05-28 04:28:00,72.0,71.4,29.71,East,90,0.0,-999.0,98,-99.99,,,0.00,Acu-Link.com,2013-05-28 09:28:00,
2013-05-28 04:43:00,72.0,71.4,29.71,SW,225,6.3,-999.0,98,-99.99,,,0.00,Acu-Link.com,2013-05-28 09:43:00,
2013-05-28 04:58:00,72.1,71.5,29.72,West,270,3.2,-999.0,98,-99.99,,,0.00,Acu-Link.com,2013-05-28 09:58:00,
2013-05-28 05:13:00,72.1,71.5,29.73,West,270,4.2,-999.0,98,-99.99,,,0.00,Acu-Link.com,2013-05-28 10:13:00,
2013-05-28 05:28:00,72.3,71.7,29.73,ESE,112,5.8,-999.0,98,-99.99,,,0.00,Acu-Link.com,2013-05-28 10:28:00,
2013-05-28 05:44:00,72.1,71.5,29.73,SSW,202,2.2,-999.0,98,-99.99,,,0.00,Acu-Link.com,2013-05-28 10:44:00,
2013-05-28 05:59:00,72.0,71.4,29.72,West,270,2.7,-999.0,98,-99.99,,,0.00,Acu-Link.com,2013-05-28 10:59:00,
2013-05-28 06:14:00,71.8,71.2,29.73,South,180,2.7,-999.0,98,-99.99,,,0.00,Acu-Link.com,2013-05-28 11:14:00,
2013-05-28 06:29:00,71.8,71.2,29.73,NE,45,4.7,-999.0,98,-99.99,,,0.00,Acu-Link.com,2013-05-28 11:29:00,
2013-05-28 06:44:00,71.8,71.2,29.73,WNW,292,3.2,-999.0,98,-99.99,,,0.00,Acu-Link.com,2013-05-28 11:44:00,
2013-05-28 06:59:00,71.8,71.2,29.74,SSE,157,2.7,-999.0,98,-99.99,,,0.00,Acu-Link.com,2013-05-28 11:59:00,
2013-05-28 07:14:00,72.1,71.5,29.74,NNW,337,3.2,-999.0,98,-99.99,,,0.00,Acu-Link.com,2013-05-28 12:14:00,
2013-05-28 07:29:00,72.7,72.1,29.75,ESE,112,2.2,-999.0,98,-99.99,,,0.00,Acu-Link.com,2013-05-28 12:29:00,
2013-05-28 07:44:00,73.2,72.6,29.75,South,180,3.7,-999.0,98,-99.99,,,0.00,Acu-Link.com,2013-05-28 12:44:00,
2013-05-28 08:00:00,73.9,73.3,29.75,South,180,3.7,-999.0,98,-99.99,,,0.00,Acu-Link.com,2013-05-28 13:00:00,
2013-05-28 08:15:00,74.5,73.9,29.75,SE,135,4.7,-999.0,98,-99.99,,,0.00,Acu-Link.com,2013-05-28 13:15:00,
2013-05-28 08:31:00,75.2,74.6,29.74,East,90,5.3,-999.0,98,-99.99,,,0.00,Acu-Link.com,2013-05-28 13:31:00,
2013-05-28 08:46:00,76.5,75.9,29.74,SSE,157,7.3,-999.0,98,-99.99,,,0.00,Acu-Link.com,2013-05-28 13:46:00,
2013-05-28 09:02:00,79.2,78.6,29.74,NNW,337,2.2,-999.0,98,-99.99,,,0.00,Acu-Link.com,2013-05-28 14:02:00,
2013-05-28 09:17:00,79.9,79.3,29.74,ESE,112,3.2,-999.0,98,-99.99,,,0.00,Acu-Link.com,2013-05-28 14:17:00,
2013-05-28 09:32:00,82.4,81.8,29.75,South,180,3.7,-999.0,98,-99.99,,,0.00,Acu-Link.com,2013-05-28 14:32:00,
2013-05-28 09:47:00,81.1,80.5,29.75,SSW,202,7.3,-999.0,98,-99.99,,,0.00,Acu-Link.com,2013-05-28 14:47:00,
2013-05-28 10:02:00,82.4,81.8,29.74,South,180,4.2,-999.0,98,-99.99,,,0.00,Acu-Link.com,2013-05-28 15:02:00,
2013-05-28 10:17:00,80.4,79.8,29.74,South,180,4.2,-999.0,98,-99.99,,,0.00,Acu-Link.com,2013-05-28 15:17:00,
2013-05-28 10:32:00,79.5,78.9,29.76,ESE,112,3.2,-999.0,98,-99.99,,,0.00,Acu-Link.com,2013-05-28 15:32:00,
2013-05-28 10:47:00,79.2,78.6,29.75,ESE,112,5.8,-999.0,98,-99.99,,,0.00,Acu-Link.com,2013-05-28 15:47:00,
2013-05-28 11:02:00,80.6,80.0,29.75,SSE,157,4.2,-999.0,98,-99.99,,,0.00,Acu-Link.com,2013-05-28 16:02:00,
2013-05-28 11:18:00,80.8,80.2,29.75,WSW,247,5.8,-999.0,98,-99.99,,,0.00,Acu-Link.com,2013-05-28 16:18:00,
2013-05-28 11:33:00,82.2,81.6,29.75,ENE,67,4.7,-999.0,98,-99.99,,,0.00,Acu-Link.com,2013-05-28 16:33:00,
2013-05-28 11:48:00,82.0,81.4,29.75,SSE,157,2.7,-999.0,98,-99.99,,,0.00,Acu-Link.com,2013-05-28 16:48:00,
2013-05-28 12:03:00,82.8,82.2,29.75,SW,225,4.2,-999.0,98,-99.99,,,0.00,Acu-Link.com,2013-05-28 17:03:00,
2013-05-28 12:19:00,85.5,84.9,29.74,East,90,1.7,-999.0,98,-99.99,,,0.00,Acu-Link.com,2013-05-28 17:19:00,
2013-05-28 12:34:00,87.8,87.2,29.74,South,180,3.7,-999.0,98,-99.99,,,0.00,Acu-Link.com,2013-05-28 17:34:00,
2013-05-28 12:49:00,88.3,87.7,29.74,East,90,5.3,-999.0,98,-99.99,,,0.00,Acu-Link.com,2013-05-28 17:49:00,
2013-05-28 13:04:00,87.3,69.7,29.73,ENE,67,4.2,-999.0,56,-99.99,,,0.00,Acu-Link.com,2013-05-28 18:04:00,
2013-05-28 13:19:00,86.5,72.8,29.72,SSW,202,7.3,-999.0,64,-99.99,,,0.00,Acu-Link.com,2013-05-28 18:19:00,
2013-05-28 13:41:00,86.9,75.9,29.70,ESE,112,7.3,-999.0,70,-99.99,,,0.00,Acu-Link.com,2013-05-28 18:41:00,
2013-05-28 13:56:00,87.6,79.9,29.70,SSE,157,5.3,-999.0,78,-99.99,,,0.00,Acu-Link.com,2013-05-28 18:56:00,
2013-05-28 14:12:00,90.3,69.1,29.69,NNE,22,5.8,-999.0,50,-99.99,,,0.00,Acu-Link.com,2013-05-28 19:12:00,
2013-05-28 14:27:00,91.0,69.7,29.69,SE,135,6.3,-999.0,50,-99.99,,,0.00,Acu-Link.com,2013-05-28 19:27:00,
2013-05-28 14:45:00,92.1,67.0,29.69,ESE,112,7.8,-999.0,44,-99.99,,,0.00,Acu-Link.com,2013-05-28 19:45:00,
2013-05-28 15:00:00,91.9,65.5,29.69,SE,135,6.8,-999.0,42,-99.99,,,0.00,Acu-Link.com,2013-05-28 20:00:00,
2013-05-28 15:15:00,91.9,63.4,29.69,ESE,112,6.3,-999.0,39,-99.99,,,0.00,Acu-Link.com,2013-05-28 20:15:00,
2013-05-28 15:30:00,92.5,63.9,29.69,East,90,9.4,-999.0,39,-99.99,,,0.00,Acu-Link.com,2013-05-28 20:30:00,
2013-05-28 15:45:00,90.7,62.3,29.67,ESE,112,5.8,-999.0,39,-99.99,,,0.00,Acu-Link.com,2013-05-28 20:45:00,
2013-05-28 16:00:00,89.6,62.7,29.67,ESE,112,9.4,-999.0,41,-99.99,,,0.00,Acu-Link.com,2013-05-28 21:00:00,
2013-05-28 16:15:00,91.9,61.9,29.67,SE,135,13.5,-999.0,37,-99.99,,,0.00,Acu-Link.com,2013-05-28 21:15:00,
2013-05-28 16:31:00,92.5,61.6,29.67,ESE,112,5.8,-999.0,36,-99.99,,,0.00,Acu-Link.com,2013-05-28 21:31:00,
2013-05-28 16:46:00,91.8,61.8,29.65,SE,135,5.8,-999.0,37,-99.99,,,0.00,Acu-Link.com,2013-05-28 21:46:00,
2013-05-28 17:01:00,90.7,63.0,29.66,East,90,4.2,-999.0,40,-99.99,,,0.00,Acu-Link.com,2013-05-28 22:01:00,
2013-05-28 17:16:00,89.1,60.9,29.65,ESE,112,7.3,-999.0,39,-99.99,,,0.00,Acu-Link.com,2013-05-28 22:16:00,
2013-05-28 17:32:00,90.1,62.5,29.65,East,90,5.8,-999.0,40,-99.99,,,0.00,Acu-Link.com,2013-05-28 22:32:00,
2013-05-28 17:47:00,90.7,63.0,29.65,SE,135,7.3,-999.0,40,-99.99,,,0.00,Acu-Link.com,2013-05-28 22:47:00,
2013-05-28 18:02:00,88.3,60.9,29.64,SSE,157,6.3,-999.0,40,-99.99,,,0.00,Acu-Link.com,2013-05-28 23:02:00,
2013-05-28 18:59:00,85.3,79.2,29.64,ESE,112,5.8,-999.0,82,-99.99,,,0.00,Acu-Link.com,2013-05-28 23:59:00,